Regional Weather Roundup
Issued by NWS

Home | Current Version | Previous Version | Text Only | Print | Product List | Glossary On
Versions: 1 2 3 4 5 6 7 8 9 10 11 12 13 14 15 16 17 18 19 20 21 22 23 24 25 26 27 28 29 30 31 32 33 34 35 36 37 38 39 40 41 42 43 44 45 46 47 48 49 50
000
ASUS43 KLOT 191610
RWRIL

ILLINOIS REGIONAL WEATHER ROUNDUP
NATIONAL WEATHER SERVICE CHICAGO/ROMEOVILLE IL
1000 AM CST FRI DEC 19 2014

NOTE: "FAIR" INDICATES FEW OR NO CLOUDS BELOW 12,000 FEET WITH NO
SIGNIFICANT WEATHER AND/OR OBSTRUCTIONS TO VISIBILITY.

* THESE STATIONS ARE NOT UNDER NWS QUALITY CONTROL. THEY ALSO MAY NOT
  REPORT WEATHER SUCH AS PRECIPITATION OR FOG.

ILZ001-002-007-009-015-016-024-191700-
NORTHWEST ILLINOIS

CITY           SKY/WX    TMP DP  RH WIND       PRES   REMARKS
MOLINE         CLOUDY    26  20  77 E5        30.35R WCI  20
STERLING*      CLOUDY    27  19  74 CALM      30.34R
SAVANNA*       CLOUDY    28  20  73 E3        30.34R
$$

ILZ003-004-008-010-011-017-018-191700-
NORTH CENTRAL ILLINOIS

CITY           SKY/WX    TMP DP  RH WIND       PRES   REMARKS
ROCKFORD       FLURRIES  28  21  75 N3        30.34R
FREEPORT*      CLOUDY    26  21  83 CALM      30.34R
ROCHELLE*      CLOUDY    28  23  83 CALM      30.33R
DE KALB*       CLOUDY    28  22  78 NE7       30.31R WCI  21
PERU*          PTSUNNY   27  23  84 CALM      30.35R
$$

ILZ005-006-012>014-019>023-191700-
NORTHEAST ILLINOIS

CITY           SKY/WX    TMP DP  RH WIND       PRES   REMARKS
CHICAGO-OHARE  CLOUDY    29  20  69 NW6       30.32R WCI  23
CHICAGO-MIDWAY CLOUDY    32  22  66 N5        30.32R WCI  27
AURORA         PTSUNNY   30  22  72 NE6       30.32R WCI  24
LANSING*       CLOUDY    31  25  78 CALM      30.32R
JOLIET*        CLOUDY    30  24  78 CALM      30.33R
WAUKEGAN       CLOUDY    28  20  71 N5        30.31R WCI  23
DUPAGE AIRPORT CLOUDY    29  22  75 N3        30.31R
KANKAKEE*      CLOUDY    27  23  85 W3        30.34R
WHEELING       CLOUDY    28  21  75 NW5       30.34R WCI  23
MORRIS*        SUNNY     29  26  86 CALM      30.32R
ROMEOVILLE*    CLOUDY    30  23  77 CALM      30.32R
NORTHERLY ISL    N/A     30  23  75 MISG        N/A
$$

LMZ740>746-191700-
SOUTHERN LAKE MICHIGAN

STATION/POSITION SKY/WX   TEMP    WIND        PRES    VSBY  WAVE
                          AIR SEA DIR/SP/G                  HT/PER
                          (F)     (DEG/KT/KT) (MB)    (MI)  (FT/S)
WAUKEGAN HARBOR            27     340/  4/  9   N/A
HARRISON CRIB              30     310/  6/  8   N/A
BURNHAM HARBOR             30     350/  4/  9   N/A
CALUMET HARBOR             31     320/  6/  8 1025.4R
$$

ILZ025>027-034>036-040-047-049-050-058-095>099-191700-
WEST-CENTRAL ILLINOIS

CITY           SKY/WX    TMP DP  RH WIND       PRES   REMARKS
QUINCY         CLOUDY    30  23  75 E5        30.31S WCI  25
GALESBURG*     SUNNY     27  21  76 E3        30.34R
MACOMB*        CLOUDY    28  23  82 E3        30.36R
JACKSONVILLE*  MOSUNNY   32  27  80 E6        30.33S WCI  27
PITTSFIELD*    MOSUNNY   32  26  77 CALM      30.33R
$$

ILZ028>032-037-038-041>044-048-051>054-059>061-191700-
CENTRAL ILLINOIS

CITY           SKY/WX    TMP DP  RH WIND       PRES   REMARKS
PONTIAC        SUNNY     26  22  84 CALM      30.35R
BLOOMINGTON    SUNNY     26  20  78 CALM      30.34R
DECATUR        SUNNY     29  22  75 NE5       30.33S WCI  24
PEORIA         SUNNY     28  19  69 CALM      30.35R
LACON*         SUNNY     25  20  80 CALM      30.35R
LINCOLN*       SUNNY     28  23  82 CALM      30.36S
SPRINGFIELD    PTSUNNY   30  22  72 E6        30.33F WCI  24
TAYLORVILLE    SUNNY     30  21  69 NE6       30.33S WCI  24
$$

ILZ033-039-045-046-055>057-062-063-191700-
EAST-CENTRAL ILLINOIS

CITY           SKY/WX    TMP DP  RH WIND       PRES   REMARKS
CHAMPAIGN      SUNNY     27  20  75 VRB3      30.34R
DANVILLE*      CLOUDY    24  21  88 W3        30.31R
RANTOUL*       FAIR      28  22  77 CALM      30.34R
MATTOON        SUNNY     27  20  75 N9        30.31F WCI  18
PARIS*         SUNNY     28  22  79 CALM      30.34F
$$

ILZ079-100>102-191700-
SOUTHWEST ILLINOIS

CITY           SKY/WX    TMP DP  RH WIND       PRES   REMARKS
ALTON          CLOUDY    32  28  86 VRB5      30.33S FOG     WCI  27
BELLEVILLE     CLOUDY    32  30  93 E3        30.35R
CAHOKIA*       PTSUNNY   35  27  72 E5        30.35R WCI  31
SPARTA*        CLOUDY    32  27  84 CALM      30.35R
$$

ILZ064>066-069>071-074>076-080>082-084>086-088>090-092>094-191700-
SOUTH-CENTRAL ILLINOIS

CITY           SKY/WX    TMP DP  RH WIND       PRES   REMARKS
CARBONDALE     CLOUDY    33  27  78 E5        30.33R WCI  29
CAIRO*         CLOUDY    37  30  78 NE8       30.31F WCI  30
EFFINGHAM*     SUNNY     31  20  64 N5        30.33F WCI  26
MARION         CLOUDY    34  28  80 NE7       30.34R WCI  28
MT. VERNON     SUNNY     30  23  74 E3        30.34R
CENTRALIA*     CLOUDY    32  25  76 E6        30.33R HAZE    WCI  26
SALEM*         SUNNY     33  26  76 NE5       30.33S HAZE    WCI  28
METROPOLIS*    CLOUDY    35  29  81 NE6       30.31F WCI  30
$$

ILZ067-068-072-073-078-083-087-091-191700-
SOUTHEAST ILLINOIS

CITY           SKY/WX    TMP DP  RH WIND       PRES   REMARKS
LAWRENCEVILLE  MOSUNNY   32  24  72 N8        30.32F WCI  25
FLORA*         SUNNY     31  24  76 NE5       30.33F WCI  26
FAIRFIELD*     MOSUNNY   31  25  77 CALM      30.33R
HARRISBURG*    CLOUDY    33  28  79 E3        30.35R
ROBINSON*      SUNNY     30  24  78 NE7       30.34F WCI  23
CARMI*         MOSUNNY   33  29  83 NE5       30.35R WCI  29
$$

ABBREVIATIONS USED IN REMARKS
   TC - TEMPERATURE IN CELSIUS
  WCI - WIND CHILL INDEX
   HX - HEAT INDEX
  VSB - VISIBILITY
$$



USA.gov is the U.S. government's official web portal to all federal, state and local government web resources and services.